{"data":{"norad_id":60522,"intl_designator":"2024-149BG","name":"CONNECTA IOT-2","alt_names":[],"object_type":"PAYLOAD","status":"ACTIVE","operator":null,"country":"TURK","launch_date":"2024-08-16","launch_site_code":"AFWTR","launch_vehicle":null,"mission":null,"orbit_class":"UNKNOWN","rcs_meters":null,"size_class":null,"mass_kg":null,"dimensions":null,"purposes":[],"wikipedia_slug":null,"has_3d_model":false,"image_url":null,"decayed_at":null,"tle_current":{"epoch":"2026-09-22T17:25:42.464352Z","epoch_age_seconds":96776,"freshness":"FRESH","line1":"1 60522U 24149BG  26265.72618593  .00005897  00000+0  24015-3 0  9990","line2":"2 60522  97.3774 342.4044 0005943 354.5908   5.5265 15.24847987116758","mean_motion":15.24847987,"eccentricity":0.0005943,"inclination_deg":97.3774,"raan_deg":342.4044,"arg_perigee_deg":354.5908,"mean_anomaly_deg":5.5265,"bstar":0.00024015,"rev_number":11675,"period_min":94.435642915007,"perigee_km":487.15946557208,"apogee_km":495.32440937716,"semimajor_km":6869.3789374746,"source":"CELESTRAK","updated_at":"2026-09-23T09:00:20.663789Z"}}}